Location: Mentone
(34.5413°N, 85.5351°W)
Time: 15:17:18
(UTC-05:00)

Transit 2A Rocket - Visible Passes

Search period start: 30 July 2015 00:00
Search period end: 09 August 2015 00:00
Orbit: 590 x 915 km, 66.7° (Epoch: 29 July)

Date Brightness Start Highest point End Pass type
(mag) Time Alt. Az. Time Alt. Az. Time Alt. Az.
30 Jul 5.1 21:07:34 10° SSW 21:13:31 71° ESE 21:19:06 10° NNE visible
30 Jul 7.8 22:52:50 10° W 22:56:40 17° NW 23:00:07 10° N visible
31 Jul 5.6 20:25:56 10° S 20:31:26 40° ESE 20:36:41 10° NE visible
31 Jul 7.2 22:09:10 10° WSW 22:14:12 28° NW 22:18:51 10° N visible
01 Aug 8.1 05:16:00 10° NNE 05:17:29 12° NE 05:19:08 10° ENE visible
01 Aug 6.3 21:26:11 10° SW 21:31:52 46° WNW 21:37:10 10° NNE visible
02 Aug 5.4 20:43:42 10° SSW 20:49:39 80° WNW 20:55:13 10° NNE visible
02 Aug 8.3 22:30:58 10° WNW 22:33:08 12° NW 22:34:57 10° NNW visible
03 Aug 5.3 20:01:41 10° SSW 20:07:32 60° ESE 20:13:01 10° NE visible
03 Aug 7.8 21:46:21 10° W 21:50:33 20° NW 21:54:23 10° N visible
04 Aug 7.8 04:50:57 10° N 04:53:53 17° NE 04:56:51 10° E visible
04 Aug 7.1 21:02:54 10° WSW 21:08:08 32° WNW 21:12:58 10° N visible
05 Aug 6.1 20:20:03 10° SW 20:25:50 54° WNW 20:31:13 10° NNE visible
06 Aug 5.7 05:08:09 10° NNW 05:12:31 49° ENE 05:16:41 10° SE visible
06 Aug 8.4 21:24:04 10° WNW 21:26:58 14° NW 21:29:31 10° NNW visible
07 Aug 6.9 04:26:28 10° N 04:30:12 26° NE 04:33:50 10° ESE visible
07 Aug 7.9 20:39:55 10° WSW 20:44:27 22° NW 20:48:36 10° N visible
08 Aug 7.8 03:45:19 10° NNE 03:47:43 14° NE 03:50:13 10° E visible
08 Aug 4.7 05:26:26 10° NW 05:30:42 48° WSW 05:34:48 10° S visible
08 Aug 7.0 19:56:40 10° SW 20:02:04 37° WNW 20:07:04 10° N visible
